FDX511 KMCO-KIAH

Flight info

Callsign FDX511
Flight time N/A
Altitude 38000
Route OSPRY1 REMIS ROZZI Y280 LEV LINKK1
Aircraft B763/H-SDE3FGHIM3RWXY/LB1

Departure

Time 2026-05-04 19:43
Airport Orlando International Airport (KMCO)

Arrival

Time N/A
Airport George Bush Intercontinental Airport (KIAH)
Time Latitude Longitude Altitude Speed Heading
2026-05-04 19:25 28.44978 -81.31642 110 ft 0 kts 360°
2026-05-04 19:25 28.44979 -81.31642 110 ft 0 kts 360°
2026-05-04 19:27 28.44980 -81.31642 110 ft 0 kts 360°
2026-05-04 19:29 28.44981 -81.31642 110 ft 0 kts 360°
2026-05-04 19:31 28.44982 -81.31642 110 ft 0 kts 360°
2026-05-04 19:33 28.44983 -81.31642 110 ft 0 kts
2026-05-04 19:35 28.44984 -81.31642 110 ft 0 kts 360°
2026-05-04 19:36 28.44988 -81.31643 110 ft 4 kts 359°
2026-05-04 19:36 28.45006 -81.31681 110 ft 11 kts 255°
2026-05-04 19:36 28.44932 -81.31734 110 ft 18 kts 184°
2026-05-04 19:36 28.44890 -81.31766 110 ft 13 kts 256°
2026-05-04 19:37 28.44884 -81.31897 110 ft 13 kts 263°
2026-05-04 19:37 28.44840 -81.31928 110 ft 10 kts 189°
2026-05-04 19:37 28.44766 -81.31928 110 ft 10 kts 179°
2026-05-04 19:37 28.44707 -81.31978 110 ft 11 kts 258°
2026-05-04 19:38 28.44685 -81.32046 110 ft 12 kts 227°
2026-05-04 19:38 28.44574 -81.32065 110 ft 21 kts 178°
2026-05-04 19:38 28.44440 -81.32062 110 ft 20 kts 179°
2026-05-04 19:38 28.44293 -81.32060 110 ft 22 kts 180°
2026-05-04 19:39 28.44131 -81.32058 110 ft 25 kts 179°
2026-05-04 19:39 28.43954 -81.32055 110 ft 27 kts 179°
2026-05-04 19:39 28.43761 -81.32050 110 ft 29 kts 180°
2026-05-04 19:39 28.43554 -81.32049 110 ft 31 kts 179°
2026-05-04 19:40 28.43335 -81.32044 110 ft 32 kts 178°
2026-05-04 19:40 28.43104 -81.32038 110 ft 34 kts 179°
2026-05-04 19:40 28.42864 -81.32032 110 ft 35 kts 179°
2026-05-04 19:40 28.42615 -81.32029 110 ft 36 kts 179°
2026-05-04 19:41 28.42379 -81.32022 110 ft 31 kts 178°
2026-05-04 19:41 28.42177 -81.32016 110 ft 27 kts 180°
2026-05-04 19:41 28.42002 -81.32014 110 ft 23 kts 179°
2026-05-04 19:41 28.41856 -81.32013 110 ft 21 kts 179°
2026-05-04 19:42 28.41711 -81.32010 110 ft 20 kts 179°
2026-05-04 19:42 28.41595 -81.32019 110 ft 13 kts 226°
2026-05-04 19:42 28.41569 -81.32078 110 ft 6 kts 263°
2026-05-04 19:42 28.41586 -81.32189 110 ft 5 kts 336°
2026-05-04 19:43 28.41934 -81.32203 110 ft 94 kts 360°
2026-05-04 19:43 28.42870 -81.32210 110 ft 173 kts
2026-05-04 19:43 28.44268 -81.32236 461 ft 218 kts 360°
2026-05-04 19:43 28.45917 -81.32266 1092 ft 258 kts
2026-05-04 19:44 28.47824 -81.32267 1606 ft 280 kts
2026-05-04 19:44 28.49750 -81.32257 2173 ft 273 kts
2026-05-04 19:44 28.51644 -81.32301 2790 ft 273 kts 358°
2026-05-04 19:44 28.52907 -81.32416 3169 ft 274 kts 355°
2026-05-04 19:45 28.54802 -81.32776 3754 ft 275 kts 344°
2026-05-04 19:45 28.56591 -81.33463 4352 ft 275 kts 335°
2026-05-04 19:45 28.58272 -81.34544 4919 ft 273 kts 318°
2026-05-04 19:45 28.59395 -81.36256 5513 ft 269 kts 293°
2026-05-04 19:46 28.59881 -81.38270 6088 ft 269 kts 277°
2026-05-04 19:46 28.59998 -81.40415 6670 ft 269 kts 269°
2026-05-04 19:46 28.59950 -81.42531 7244 ft 271 kts 266°
2026-05-04 19:46 28.59837 -81.44665 7817 ft 272 kts 265°
2026-05-04 19:47 28.59706 -81.46831 8399 ft 276 kts 265°
2026-05-04 19:47 28.59390 -81.48976 8968 ft 277 kts 252°
2026-05-04 19:47 28.58552 -81.50956 9547 ft 282 kts 239°
2026-05-04 19:47 28.57412 -81.52779 10133 ft 284 kts 233°
2026-05-04 19:48 28.56148 -81.54524 10710 ft 288 kts 231°
2026-05-04 19:48 28.54820 -81.56242 11283 ft 291 kts 230°
2026-05-04 19:48 28.53468 -81.57966 11881 ft 293 kts 230°
2026-05-04 19:48 28.52118 -81.59695 12443 ft 295 kts 230°
2026-05-04 19:49 28.50770 -81.61423 13015 ft 296 kts 230°
2026-05-04 19:49 28.49386 -81.63195 13606 ft 301 kts 230°
2026-05-04 19:49 28.47990 -81.64979 14185 ft 303 kts 230°
2026-05-04 19:49 28.46581 -81.66780 14764 ft 306 kts 230°
2026-05-04 19:50 28.45179 -81.68583 15330 ft 308 kts 230°
2026-05-04 19:50 28.43719 -81.70473 15910 ft 319 kts 230°
2026-05-04 19:50 28.42235 -81.72404 16482 ft 329 kts 230°
2026-05-04 19:50 28.40732 -81.74407 17056 ft 338 kts 230°
2026-05-04 19:51 28.39207 -81.76438 17627 ft 344 kts 230°
2026-05-04 19:51 28.37624 -81.78547 18211 ft 350 kts 230°
2026-05-04 19:51 28.36043 -81.80647 18795 ft 356 kts 231°
2026-05-04 19:51 28.34431 -81.82788 19376 ft 360 kts 231°
2026-05-04 19:52 28.32793 -81.84973 19942 ft 363 kts 231°
2026-05-04 19:52 28.31149 -81.87172 20525 ft 365 kts 231°
2026-05-04 19:52 28.29676 -81.89511 21120 ft 365 kts 242°
2026-05-04 19:52 28.28735 -81.92154 21680 ft 365 kts 253°
2026-05-04 19:53 28.28115 -81.94949 22228 ft 367 kts 257°
2026-05-04 19:53 28.27607 -81.97803 22803 ft 367 kts 259°
2026-05-04 19:53 28.27160 -82.00410 23332 ft 367 kts 259°
2026-05-04 19:53 28.26667 -82.03260 23918 ft 367 kts 259°
2026-05-04 19:54 28.26188 -82.06056 24489 ft 365 kts 259°
2026-05-04 19:54 28.25706 -82.08896 25064 ft 363 kts 259°
2026-05-04 19:54 28.25207 -82.11700 25646 ft 360 kts 258°
2026-05-04 19:54 28.24696 -82.14464 26223 ft 357 kts 258°
2026-05-04 19:55 28.24188 -82.17173 26778 ft 353 kts 258°
2026-05-04 19:55 28.23679 -82.19877 27360 ft 347 kts 258°
2026-05-04 19:55 28.23179 -82.22545 27926 ft 342 kts 258°
2026-05-04 19:55 28.22690 -82.25169 28505 ft 335 kts 258°
2026-05-04 19:56 28.22223 -82.27731 29080 ft 328 kts 258°
2026-05-04 19:56 28.21759 -82.30200 29663 ft 318 kts 257°
2026-05-04 19:56 28.21274 -82.32631 30252 ft 307 kts 257°
2026-05-04 19:56 28.20814 -82.34920 30825 ft 294 kts 257°
2026-05-04 19:57 28.20367 -82.37134 31412 ft 279 kts 257°
2026-05-04 19:57 28.19942 -82.39223 31925 ft 265 kts 257°
2026-05-04 19:57 28.19537 -82.41221 32164 ft 258 kts 257°
2026-05-04 19:57 28.19127 -82.43209 31971 ft 259 kts 257°
2026-05-04 19:58 28.18706 -82.45241 29800 ft 275 kts 257°
2026-05-04 19:58 28.18227 -82.47635 26843 ft 356 kts 257°
2026-05-04 19:58 28.17679 -82.50459 25841 ft 376 kts 257°
2026-05-04 19:58 28.17108 -82.53380 26108 ft 373 kts 257°
2026-05-04 19:59 28.16561 -82.56237 26656 ft 369 kts 258°
2026-05-04 19:59 28.16030 -82.59067 27236 ft 365 kts 258°
2026-05-04 19:59 28.15506 -82.61869 27810 ft 360 kts 258°
2026-05-04 19:59 28.14992 -82.64593 28386 ft 354 kts 257°
2026-05-04 20:00 28.14474 -82.67294 28972 ft 347 kts 257°
2026-05-04 20:00 28.13976 -82.69945 29553 ft 339 kts 258°
2026-05-04 20:00 28.13495 -82.72522 30140 ft 330 kts 258°
2026-05-04 20:00 28.13019 -82.75038 30728 ft 319 kts 257°
2026-05-04 20:01 28.12558 -82.77422 31302 ft 307 kts 257°
2026-05-04 20:01 28.12093 -82.79731 31867 ft 293 kts 257°
2026-05-04 20:01 28.11653 -82.81916 32444 ft 277 kts 257°
2026-05-04 20:01 28.11232 -82.83997 32869 ft 264 kts 257°
2026-05-04 20:02 28.10828 -82.86005 32969 ft 260 kts 257°
2026-05-04 20:02 28.10405 -82.88040 32588 ft 271 kts 254°
2026-05-04 20:02 28.09823 -82.90102 32308 ft 278 kts 256°
2026-05-04 20:02 28.09273 -82.92188 31462 ft 273 kts 258°
2026-05-04 20:03 28.08766 -82.94351 28632 ft 308 kts 259°
2026-05-04 20:03 28.08261 -82.97018 27061 ft 367 kts 261°
2026-05-04 20:03 28.07839 -82.99897 27089 ft 376 kts 261°
2026-05-04 20:03 28.07400 -83.02736 27311 ft 381 kts 260°
2026-05-04 20:04 28.06914 -83.05719 27572 ft 385 kts 260°
2026-05-04 20:04 28.06412 -83.08728 27821 ft 390 kts 259°
2026-05-04 20:04 28.05881 -83.11716 28078 ft 393 kts 259°
2026-05-04 20:04 28.05309 -83.14766 28331 ft 397 kts 258°
2026-05-04 20:05 28.04720 -83.17843 28571 ft 401 kts 258°
2026-05-04 20:05 28.04128 -83.20946 28824 ft 404 kts 258°
2026-05-04 20:05 28.03530 -83.24066 29071 ft 407 kts 258°
2026-05-04 20:05 28.02937 -83.27189 29327 ft 409 kts 258°
2026-05-04 20:06 28.02338 -83.30348 29578 ft 411 kts 258°
2026-05-04 20:06 28.01734 -83.33522 29823 ft 413 kts 258°
2026-05-04 20:06 28.01119 -83.36706 30084 ft 415 kts 258°
2026-05-04 20:06 28.00498 -83.39904 30351 ft 416 kts 258°
2026-05-04 20:07 27.99912 -83.43090 30608 ft 417 kts 261°
2026-05-04 20:07 27.99552 -83.46348 30869 ft 418 kts 265°
2026-05-04 20:07 27.99351 -83.49641 31109 ft 419 kts 267°
2026-05-04 20:07 27.99202 -83.52898 31367 ft 419 kts 267°
2026-05-04 20:08 27.99056 -83.56204 31631 ft 420 kts 267°
2026-05-04 20:08 27.98915 -83.59498 31886 ft 420 kts 268°
2026-05-04 20:08 27.98779 -83.62811 32152 ft 419 kts 267°
2026-05-04 20:08 27.98634 -83.66102 32398 ft 419 kts 267°
2026-05-04 20:09 27.98452 -83.69411 32648 ft 419 kts 266°
2026-05-04 20:09 27.98258 -83.72692 32903 ft 418 kts 266°
2026-05-04 20:09 27.98055 -83.75986 33153 ft 417 kts 266°
2026-05-04 20:09 27.97859 -83.79253 33404 ft 416 kts 266°
2026-05-04 20:10 27.97659 -83.82492 33661 ft 415 kts 266°
2026-05-04 20:10 27.97450 -83.85739 33909 ft 413 kts 266°
2026-05-04 20:10 27.97252 -83.88977 34171 ft 412 kts 266°
2026-05-04 20:10 27.97064 -83.92239 34430 ft 410 kts 266°
2026-05-04 20:11 27.96866 -83.95419 34679 ft 407 kts 266°
2026-05-04 20:11 27.96660 -83.98601 34937 ft 405 kts 266°
2026-05-04 20:11 27.96457 -84.01760 35182 ft 402 kts 266°
2026-05-04 20:11 27.96253 -84.04932 35440 ft 399 kts 266°
2026-05-04 20:12 27.96064 -84.08036 35690 ft 396 kts 266°
2026-05-04 20:12 27.95883 -84.11149 35937 ft 393 kts 266°
2026-05-04 20:12 27.95717 -84.14187 36179 ft 390 kts 266°
2026-05-04 20:12 27.95533 -84.17238 36433 ft 386 kts 266°
2026-05-04 20:13 27.95332 -84.20253 36688 ft 381 kts 266°
2026-05-04 20:13 27.95137 -84.23218 36947 ft 376 kts 266°
2026-05-04 20:13 27.94945 -84.26148 37201 ft 370 kts 266°
2026-05-04 20:13 27.94750 -84.28998 37447 ft 365 kts 266°
2026-05-04 20:14 27.94549 -84.31836 37693 ft 358 kts 266°
2026-05-04 20:14 27.94354 -84.34628 37895 ft 353 kts 266°
2026-05-04 20:14 27.94167 -84.37391 37981 ft 351 kts 266°
2026-05-04 20:15 27.93821 -84.42908 37999 ft 351 kts 267°
2026-05-04 20:15 27.93502 -84.48404 37992 ft 352 kts 267°
2026-05-04 20:16 27.93169 -84.53902 38008 ft 352 kts 267°
2026-05-04 20:16 27.92837 -84.59431 37994 ft 353 kts 267°
2026-05-04 20:17 27.92451 -84.64977 38001 ft 353 kts 266°
2026-05-04 20:17 27.92034 -84.70531 38006 ft 354 kts 266°
2026-05-04 20:18 27.91657 -84.76078 38024 ft 354 kts 267°
2026-05-04 20:18 27.91313 -84.81626 38012 ft 356 kts 266°
2026-05-04 20:19 27.90987 -84.87234 38014 ft 357 kts 266°
2026-05-04 20:19 27.90587 -84.92851 38014 ft 358 kts 266°
2026-05-04 20:20 27.90198 -84.98447 38006 ft 359 kts 266°
2026-05-04 20:20 27.89826 -85.04082 37998 ft 361 kts 266°
2026-05-04 20:21 27.89441 -85.09760 37999 ft 362 kts 266°
2026-05-04 20:21 27.88835 -85.18301 38002 ft 364 kts 266°
2026-05-04 20:22 27.88465 -85.24037 38010 ft 366 kts 268°
2026-05-04 20:22 27.88595 -85.26875 38020 ft 367 kts 280°
2026-05-04 20:22 27.89188 -85.29694 38004 ft 369 kts 286°
2026-05-04 20:23 27.90887 -85.35184 38009 ft 372 kts 290°
2026-05-04 20:23 27.92687 -85.40702 38006 ft 374 kts 289°
2026-05-04 20:24 27.94455 -85.46225 38001 ft 376 kts 289°
2026-05-04 20:24 27.96214 -85.51842 37999 ft 379 kts 289°